TimeCDT,TemperatureF,Dew PointF,Humidity,Sea Level PressureIn,VisibilityMPH,Wind Direction,Wind SpeedMPH,Gust SpeedMPH,PrecipitationIn,Events,Conditions,WindDirDegrees,DateUTC
12:53 AM,81.0,68.0,65,29.92,10.0,SSW,6.9,-,N/A,,Clear,210,2013-06-26 05:53:00
1:53 AM,79.0,70.0,74,29.92,10.0,South,5.8,-,N/A,,Clear,190,2013-06-26 06:53:00
2:53 AM,79.0,71.1,77,29.90,10.0,SSW,9.2,-,N/A,,Clear,200,2013-06-26 07:53:00
3:53 AM,80.1,72.0,76,29.89,10.0,SSW,12.7,-,N/A,,Clear,210,2013-06-26 08:53:00
4:53 AM,79.0,72.0,79,29.90,10.0,SSW,9.2,-,N/A,,Clear,210,2013-06-26 09:53:00
5:53 AM,79.0,72.0,79,29.92,10.0,South,9.2,-,N/A,,Clear,190,2013-06-26 10:53:00
6:53 AM,81.0,72.0,74,29.93,10.0,SW,12.7,-,N/A,,Clear,220,2013-06-26 11:53:00
7:53 AM,82.0,73.0,74,29.93,10.0,SSW,13.8,-,N/A,,Mostly Cloudy,210,2013-06-26 12:53:00
8:53 AM,84.9,73.0,67,29.92,10.0,SSW,16.1,24.2,N/A,,Partly Cloudy,210,2013-06-26 13:53:00
9:53 AM,87.1,73.0,63,29.91,10.0,SW,19.6,25.3,N/A,,Clear,220,2013-06-26 14:53:00
10:53 AM,88.0,72.0,59,29.92,10.0,SW,17.3,26.5,N/A,,Scattered Clouds,230,2013-06-26 15:53:00
11:53 AM,89.1,70.0,53,29.92,10.0,SW,10.4,20.7,N/A,,Clear,230,2013-06-26 16:53:00
12:53 PM,93.0,69.1,45,29.89,10.0,SW,19.6,28.8,N/A,,Clear,220,2013-06-26 17:53:00
1:53 PM,91.9,69.1,47,29.89,10.0,SW,16.1,26.5,N/A,,Partly Cloudy,230,2013-06-26 18:53:00
2:53 PM,91.9,69.1,47,29.86,10.0,SW,18.4,28.8,N/A,,Clear,220,2013-06-26 19:53:00
3:53 PM,95.0,69.1,43,29.83,10.0,SW,20.7,26.5,N/A,,Clear,220,2013-06-26 20:53:00
4:53 PM,96.1,69.1,41,29.83,10.0,SW,19.6,25.3,N/A,,Clear,230,2013-06-26 21:53:00
5:53 PM,95.0,70.0,44,29.82,10.0,SW,19.6,25.3,N/A,,Clear,230,2013-06-26 22:53:00
6:53 PM,93.0,71.1,49,29.83,10.0,WSW,13.8,-,N/A,,Clear,240,2013-06-26 23:53:00
7:53 PM,89.1,72.0,57,29.82,10.0,SSW,9.2,-,N/A,,Clear,210,2013-06-27 00:53:00
8:53 PM,88.0,73.0,61,29.82,10.0,SW,10.4,-,N/A,,Clear,220,2013-06-27 01:53:00
9:53 PM,86.0,73.0,65,29.83,10.0,SSW,13.8,-,N/A,,Clear,210,2013-06-27 02:53:00
10:53 PM,84.9,73.0,67,29.83,10.0,SW,12.7,-,N/A,,Clear,230,2013-06-27 03:53:00
11:53 PM,84.9,72.0,65,29.84,10.0,WSW,13.8,-,N/A,,Clear,240,2013-06-27 04:53:00